Home   Weather   Abu Dhabi   Past weeks

Flag for United Arab Emirates Past Weather in Abu Dhabi, Abu Dhabi, United Arab Emirates — Yesterday and Last 2 Weeks

Now
90 °F

Clear.


Feels Like: 92 °F
Forecast: 87 / 93 °F
Wind: 16 mph from Northwest

Location: Abu Dhabi Bateen Airport

Current Time: Sep 30, 2016 at 4:02:58 AM

Latest Report: Sep 30, 2016 at 3:00 AM


Visibility: 10 mi

Pressure: 29.65 "Hg

Humidity: 46%

Dew Point: 66 °F

Location of Abu DhabiLocation

Past Weather in Abu Dhabi — Graph

°F

Abu Dhabi Temperature Yesterday

Maximum temperature yesterday: 100 °F (at 2:00 PM)
Minimum temperature yesterday: 84 °F (at 5:00 AM)
Average temperature yesterday: 92 °F

High & Low Weather Summary for the Past Weeks

 TemperatureHumidityPressure
High106 °F (Sep 18, 2:00 PM)89% (Sep 17, 5:00 AM)29.83 "Hg (Sep 17, 5:00 AM)
Low82 °F (Sep 19, 6:00 AM)13% (Sep 18, 2:00 PM)29.59 "Hg (Sep 17, 4:00 PM)
Average92 °F60%29.68 "Hg
* Reported Sep 15 3:00 AM — Sep 30 3:00 AM, Abu Dhabi, Weather by CustomWeather, © 2016

Note: Actual official high and low records may vary slightly from our data, if they occured in-between our weather recording intervals... More about our weather records

Advertising

Abu Dhabi Weather History for the Previous 24 Hours

Scroll right to see more
 ConditionsComfort  
Time TempWeatherWind HumidityBarometerVisibility
3:00 AM
Fri, Sep 30
90 °FClear.16 mph46%29.65 "Hg10 mi
2:00 AM91 °FClear.14 mph44%29.65 "Hg10 mi
1:00 AM91 °FClear.12 mph34%29.68 "Hg10 mi
12:00 AM93 °FClear.9 mph34%29.68 "Hg10 mi
11:00 PM
Thu, Sep 29
91 °FClear.1 mph52%29.68 "Hg10 mi
10:00 PM91 °FClear.6 mph52%29.68 "Hg10 mi
9:00 PM93 °FClear.9 mph49%29.68 "Hg10 mi
8:00 PM95 °FClear.8 mph44%29.65 "Hg10 mi
7:00 PM95 °FClear.12 mph44%29.65 "Hg10 mi
6:00 PM97 °FPassing clouds.8 mph44%29.62 "HgN/A
5:00 PM97 °FClear.15 mph47%29.62 "Hg6 mi
4:00 PM99 °FClear.15 mph47%29.62 "Hg5 mi
3:00 PM99 °FClear.16 mph50%29.62 "Hg5 mi
2:00 PM100 °FClear.13 mph45%29.65 "Hg5 mi
1:00 PM99 °FClear.8 mph50%29.68 "Hg5 mi
12:00 PM97 °FClear.7 mph56%29.74 "Hg5 mi
11:00 AM93 °FClear.8 mph63%29.74 "Hg5 mi
10:00 AM90 °FClear.7 mph71%29.77 "Hg5 mi
9:00 AM88 °FClear.7 mph70%29.74 "Hg5 mi
8:00 AM84 °FClear.6 mph79%29.74 "Hg5 mi
7:00 AM84 °FClear.7 mph79%29.71 "Hg5 mi
6:00 AM84 °FClear.5 mph84%29.71 "Hg5 mi
5:00 AM84 °FClear.6 mph84%29.68 "Hg5 mi
4:00 AM88 °FPassing clouds.5 mph75%29.68 "HgN/A
Weather by CustomWeather, © 2016

See weather overviewHow to use our weather pages